Simultaneous Nadir Overpasses (SNOs) Predictions

Prediction of SNOs between AQUA and GOES-15 Satellite Orbit:

Table of predicted SNOs for the next 14.0 days since TLE Epoch: 12/13/2019
Index Date Time (AQUA) AQUA Lat,Lon GOES-15 Lat,Lon Distance(km) Time Diff (sec)
1 12/14/2019 22:03:58 0.18,-127.17 0.01,-127.99 93.49 80
2 12/15/2019 10:25:14 0.91,-132.33 -0.03,-128.00 492.32 80
3 12/16/2019 21:51:47 0.80,-124.21 0.01,-127.92 421.91 80
4 12/17/2019 10:13:03 0.29,-129.37 -0.03,-127.93 163.99 80
5 12/19/2019 10:00:52 -0.34,-126.41 -0.03,-127.85 164.08 80
6 12/19/2019 22:22:16 -0.78,-131.60 0.04,-127.81 431.65 80
7 12/21/2019 09:48:41 -0.96,-123.46 -0.02,-127.78 491.96 80
8 12/21/2019 22:10:05 -0.15,-128.64 0.04,-127.73 103.85 80
9 12/23/2019 21:57:53 0.42,-125.68 0.03,-127.65 223.53 80
10 12/24/2019 10:19:09 0.66,-130.84 -0.04,-127.65 362.40 80
11 12/26/2019 10:06:58 0.02,-127.88 -0.03,-127.56 35.63 80




NCC Satellite Simultaneous Nadir Overpasses (SNOs) Prediction Service
